Карточка аэропорта UOOO

Внимание!
Информация на этой странице в стадии наполнения.
Если вы не увидели какой-то информации, или заметили неточность - пожалуйста сообщите нам!
Спасибо!
Команда RU-STAFF
Название аэропортаАлыкель
Название аэропорта (англ.)Alykel
Превышение574 ft. (175 m.)
Координаты69°19.02', 87°19.02'
Высота перехода1200m
Эшелон переходаQFE>744:FL60;744>QFE>717:FL70;717>QFE:FL80
Коды ответчика5401-5427
Зона ОрВДКрасноярск РПИ (UNKL)
Данные METARUOOO 140730Z 10007MPS 9000 3400NE -SHSN BKN018CB M04/M06 Q0991 R19/591038 NOSIG RMK QFE727/0970
Проноз погоды (TAF)UOOO 140449Z 1406/1506 10007G15MPS 6000 -SHSN BLSN BKN016CB TEMPO 1406/1409 3200 -SHSN BLSN BECMG 1409/1412 02006G13MPS TEMPO 1412/1503 2500 -SHSN BLSN BECMG 1503/1505 33008G13MPS
NOTAMshow/hide NOTAM
AWOS   TABLE

Информация о ВПП

ВПП Длина ВПП (м.) Покрытие Курс ВПП Частота ILS
013430Бетон13109.5
193430Бетон193110.3

Диспетчерские позиции

Позывной Наименование органа УВД Частота
UOOO_R_APPНорильск - Круг120.400
UOOO_GNDНорильск - Руление121.700
UOOO_TWRНорильск - Старт118.300



Спутниковое изображение